TimeCDT,TemperatureF,Dew PointF,Humidity,Sea Level PressureIn,VisibilityMPH,Wind Direction,Wind SpeedMPH,Gust SpeedMPH,PrecipitationIn,Events,Conditions,WindDirDegrees,DateUTC
12:08 AM,81.0,59.2,47,-9999,-9999.0,SSE,18.4,-,N/A,,Unknown,160,2013-06-25 05:08:00
12:28 AM,80.1,59.2,49,-9999,-9999.0,SSE,17.3,-,N/A,,Unknown,160,2013-06-25 05:28:00
12:48 AM,80.1,59.2,49,-9999,-9999.0,South,17.3,-,N/A,,Unknown,170,2013-06-25 05:48:00
1:08 AM,79.0,58.1,49,-9999,-9999.0,South,17.3,-,N/A,,Unknown,170,2013-06-25 06:08:00
1:28 AM,80.1,57.0,45,-9999,-9999.0,South,17.3,-,N/A,,Unknown,180,2013-06-25 06:28:00
1:48 AM,80.1,57.0,45,-9999,-9999.0,South,16.1,-,N/A,,Unknown,180,2013-06-25 06:48:00
2:08 AM,79.0,56.1,45,-9999,-9999.0,South,16.1,-,N/A,,Unknown,190,2013-06-25 07:08:00
2:28 AM,79.0,56.1,45,-9999,-9999.0,South,15.0,-,N/A,,Unknown,190,2013-06-25 07:28:00
2:48 AM,79.0,56.1,45,-9999,-9999.0,SSW,15.0,-,N/A,,Unknown,200,2013-06-25 07:48:00
3:08 AM,78.1,56.1,47,-9999,-9999.0,South,15.0,-,N/A,,Unknown,190,2013-06-25 08:08:00
3:28 AM,78.1,56.1,47,-9999,-9999.0,South,15.0,-,N/A,,Unknown,190,2013-06-25 08:28:00
3:48 AM,78.1,56.1,47,-9999,-9999.0,SSW,16.1,-,N/A,,Unknown,200,2013-06-25 08:48:00
4:08 AM,78.1,55.0,45,-9999,-9999.0,SSW,17.3,-,N/A,,Unknown,200,2013-06-25 09:08:00
4:28 AM,77.0,55.0,47,-9999,-9999.0,SSW,16.1,-,N/A,,Unknown,200,2013-06-25 09:28:00
4:48 AM,75.9,55.0,48,-9999,-9999.0,SSW,13.8,-,N/A,,Unknown,210,2013-06-25 09:48:00
5:08 AM,75.9,55.0,48,-9999,-9999.0,SSW,15.0,-,N/A,,Unknown,210,2013-06-25 10:08:00
5:28 AM,75.9,55.0,48,-9999,-9999.0,SSW,16.1,-,N/A,,Unknown,210,2013-06-25 10:28:00
5:48 AM,75.0,56.1,52,-9999,-9999.0,SW,12.7,-,N/A,,Unknown,220,2013-06-25 10:48:00
6:08 AM,-9999,-9999,N/A,-9999,-9999.0,North,-9999.0,-,N/A,,Unknown,0,2013-06-25 11:08:00
6:28 AM,73.9,57.0,55,-9999,-9999.0,SW,13.8,-,N/A,,Unknown,230,2013-06-25 11:28:00
6:48 AM,73.9,56.1,54,-9999,-9999.0,SW,12.7,-,N/A,,Unknown,230,2013-06-25 11:48:00
7:08 AM,73.0,56.1,55,-9999,-9999.0,SW,12.7,-,N/A,,Unknown,230,2013-06-25 12:08:00
7:28 AM,73.9,55.0,52,-9999,-9999.0,WSW,15.0,-,N/A,,Unknown,240,2013-06-25 12:28:00
7:48 AM,75.0,52.2,45,-9999,-9999.0,WSW,13.8,-,N/A,,Unknown,240,2013-06-25 12:48:00
8:08 AM,77.0,49.1,37,-9999,-9999.0,WSW,12.7,-,N/A,,Unknown,240,2013-06-25 13:08:00
8:28 AM,78.1,50.2,38,-9999,-9999.0,WSW,12.7,-,N/A,,Unknown,240,2013-06-25 13:28:00
8:48 AM,79.0,48.0,34,-9999,-9999.0,WSW,10.4,-,N/A,,Unknown,250,2013-06-25 13:48:00
9:08 AM,80.1,46.0,30,-9999,-9999.0,West,11.5,-,N/A,,Unknown,270,2013-06-25 14:08:00
9:28 AM,84.0,42.1,23,-9999,-9999.0,West,9.2,-,N/A,,Unknown,280,2013-06-25 14:28:00
9:48 AM,86.0,37.0,18,-9999,-9999.0,West,9.2,-,N/A,,Unknown,280,2013-06-25 14:48:00
10:08 AM,87.1,35.1,16,-9999,-9999.0,West,10.4,-,N/A,,Unknown,260,2013-06-25 15:08:00
10:28 AM,90.0,33.1,13,-9999,-9999.0,West,11.5,-,N/A,,Unknown,260,2013-06-25 15:28:00
10:48 AM,93.0,33.1,12,-9999,-9999.0,West,10.4,-,N/A,,Unknown,260,2013-06-25 15:48:00
11:08 AM,95.0,32.2,11,-9999,-9999.0,West,9.2,-,N/A,,Unknown,280,2013-06-25 16:08:00
11:28 AM,96.1,32.2,11,-9999,-9999.0,West,8.1,-,N/A,,Unknown,270,2013-06-25 16:28:00
11:48 AM,97.0,33.1,11,-9999,-9999.0,West,3.5,-,N/A,,Unknown,260,2013-06-25 16:48:00
12:08 PM,97.0,33.1,11,-9999,-9999.0,WNW,9.2,-,N/A,,Unknown,290,2013-06-25 17:08:00
12:28 PM,97.0,33.1,11,-9999,-9999.0,West,11.5,-,N/A,,Unknown,270,2013-06-25 17:28:00
12:48 PM,97.0,33.1,11,-9999,-9999.0,West,9.2,-,N/A,,Unknown,270,2013-06-25 17:48:00
1:08 PM,98.1,33.1,10,-9999,-9999.0,West,6.9,-,N/A,,Unknown,260,2013-06-25 18:08:00
1:28 PM,98.1,35.1,11,-9999,-9999.0,West,4.6,-,N/A,,Unknown,280,2013-06-25 18:28:00
1:48 PM,98.1,35.1,11,-9999,-9999.0,WNW,4.6,-,N/A,,Unknown,300,2013-06-25 18:48:00
2:08 PM,100.0,36.1,11,-9999,-9999.0,North,3.5,-,N/A,,Unknown,350,2013-06-25 19:08:00
2:28 PM,99.0,36.1,11,-9999,-9999.0,North,8.1,-,N/A,,Unknown,350,2013-06-25 19:28:00
2:48 PM,99.0,35.1,11,-9999,-9999.0,NW,4.6,-,N/A,,Unknown,320,2013-06-25 19:48:00
3:08 PM,100.0,36.1,11,-9999,-9999.0,East,3.5,-,N/A,,Unknown,80,2013-06-25 20:08:00
3:28 PM,100.9,37.0,11,-9999,-9999.0,NW,4.6,-,N/A,,Unknown,320,2013-06-25 20:28:00
3:48 PM,100.9,37.0,11,-9999,-9999.0,ENE,6.9,-,N/A,,Unknown,70,2013-06-25 20:48:00
4:08 PM,100.0,36.1,11,-9999,-9999.0,NW,4.6,-,N/A,,Unknown,310,2013-06-25 21:08:00
4:28 PM,100.9,37.0,11,-9999,-9999.0,SW,2.3,-,N/A,,Unknown,220,2013-06-25 21:28:00
4:48 PM,100.9,37.0,11,-9999,-9999.0,SE,6.9,-,N/A,,Unknown,130,2013-06-25 21:48:00
5:08 PM,100.9,37.0,11,-9999,-9999.0,West,2.3,-,N/A,,Unknown,260,2013-06-25 22:08:00
5:28 PM,100.9,37.0,11,-9999,-9999.0,West,2.3,-,N/A,,Unknown,260,2013-06-25 22:28:00
5:48 PM,99.0,36.1,11,-9999,-9999.0,WNW,1.2,-,N/A,,Unknown,290,2013-06-25 22:48:00
6:08 PM,100.0,36.1,11,-9999,-9999.0,North,4.6,-,N/A,,Unknown,350,2013-06-25 23:08:00
6:28 PM,100.9,36.1,11,-9999,-9999.0,East,3.5,-,N/A,,Unknown,80,2013-06-25 23:28:00
6:48 PM,99.0,35.1,11,-9999,-9999.0,NNE,8.1,-,N/A,,Unknown,20,2013-06-25 23:48:00
7:08 PM,99.0,34.2,10,-9999,-9999.0,NNE,6.9,-,N/A,,Unknown,30,2013-06-26 00:08:00
7:28 PM,99.0,34.2,10,-9999,-9999.0,NE,8.1,-,N/A,,Unknown,50,2013-06-26 00:28:00
7:48 PM,98.1,34.2,11,-9999,-9999.0,ENE,6.9,-,N/A,,Unknown,60,2013-06-26 00:48:00
8:08 PM,95.0,33.1,11,-9999,-9999.0,ENE,8.1,-,N/A,,Unknown,70,2013-06-26 01:08:00
8:28 PM,93.9,32.2,11,-9999,-9999.0,ENE,6.9,-,N/A,,Unknown,60,2013-06-26 01:28:00
8:48 PM,91.0,35.1,14,-9999,-9999.0,ENE,4.6,-,N/A,,Unknown,60,2013-06-26 01:48:00
9:08 PM,84.9,38.1,19,-9999,-9999.0,East,5.8,-,N/A,,Unknown,100,2013-06-26 02:08:00
9:28 PM,84.9,38.1,19,-9999,-9999.0,East,4.6,-,N/A,,Unknown,80,2013-06-26 02:28:00
9:48 PM,81.0,39.0,22,-9999,-9999.0,East,5.8,-,N/A,,Unknown,100,2013-06-26 02:48:00
10:08 PM,80.1,39.0,23,-9999,-9999.0,East,6.9,-,N/A,,Unknown,100,2013-06-26 03:08:00
10:28 PM,-9999,-9999,N/A,-9999,-9999.0,North,-9999.0,-,N/A,,Unknown,0,2013-06-26 03:28:00
10:48 PM,77.0,38.1,25,-9999,-9999.0,East,6.9,-,N/A,,Unknown,100,2013-06-26 03:48:00
11:08 PM,75.9,38.1,26,-9999,-9999.0,East,9.2,-,N/A,,Unknown,100,2013-06-26 04:08:00
11:28 PM,75.0,37.0,25,-9999,-9999.0,ESE,8.1,-,N/A,,Unknown,110,2013-06-26 04:28:00
11:48 PM,77.0,35.1,22,-9999,-9999.0,East,11.5,-,N/A,,Unknown,100,2013-06-26 04:48:00